Regional Weather Roundup
Issued by NWS Albany, NY

Current Version | Previous Version | Graphics & Text | Print | Product List | Glossary Off
Versions: 1 2 3 4 5 6 7 8 9 10 11 12 13 14 15 16 17 18 19 20 21 22 23 24 25 26 27 28 29 30 31 32 33 34 35 36 37 38 39 40 41 42 43 44 45 46 47 48 49 50

000
ASUS41 KALY 031010
RWRALY

NEW YORK STATE HOURLY WEATHER ROUNDUP
NATIONAL WEATHER SERVICE ALBANY NY
500 AM EST SAT DEC 03 2016

NOTE: "FAIR" INDICATES FEW OR NO CLOUDS BELOW 12,000 FEET WITH NO
SIGNIFICANT WEATHER AND/OR NO OBSTRUCTIONS TO VISIBILITY.

NYZ032-033-038>043-046>054-057>066-NYZ062>081-082-084-031100-
EAST


CITY           SKY/WX    TMP DP  RH WIND       PRES   REMARKS
ALBANY         CLOUDY    37  27  67 NW16G23   29.89R WCI  28
GLENS FALLS    NOT AVBL
POUGHKEEPSIE   CLOUDY    40  28  62 W7        29.90
NEWBURGH       MOCLDY    37  30  75 W16       29.92R WCI  28
WHITE PLAINS   MOCLDY    40  27  59 W13G26    29.90R WCI  32
ISLIP          MOCLDY    41  28  60 NW14      29.91R
NEW YORK CITY  PTCLDY    44  29  55 NW21G26   29.94R
CENTRAL PARK   PTCLDY    42  26  53 W8        29.97R
$$

NYZ005>009-017-018-044>046-055-056-031100-
CENTRAL


CITY           SKY/WX    TMP DP  RH WIND       PRES   REMARKS
FULTON         CLOUDY    37  28  70 NW17      30.01R WCI  27
SYRACUSE       FLURRIES  36  31  82 W8        30.00R WCI  30
ROME           CLOUDY    34  33  96 W9        29.98R WCI  27
ELMIRA         CLOUDY    38  27  64 NW13G20   30.03R WCI  30
BINGHAMTON     CLOUDY    32  26  78 NW16G26   29.95  WCI  21
$$

NYZ026>034-041>043-087-031100-
NORTH


CITY           SKY/WX    TMP DP  RH WIND       PRES   REMARKS
WATERTOWN      CLOUDY    36  27  69 NW13      29.98R WCI  27
FORT DRUM      NOT AVBL
OGDENSBURG     MOCLDY    35  30  80 NW16G22   29.95R WCI  25
MASSENA        CLOUDY    35  28  75 W12G22    29.93  WCI  27
SARANAC LAKE   LGT SNOW  29  26  89 W8        29.83R FOG     WCI  21
PLATTSBURGH    CLOUDY    36  27  69 NW10G18   29.84  WCI  28
$$

NYZ001>004-010>016-019>021-085-031100-
WEST


CITY           SKY/WX    TMP DP  RH WIND       PRES   REMARKS
NIAGARA FALLS  PTCLDY    36  29  75 W12       30.11  WCI  28
BUFFALO        PTCLDY    35  29  78 W10       30.11R WCI  27
DUNKIRK        CLOUDY    40  34  79 NW17G25   30.14  WCI  31
WELLSVILLE     CLOUDY    34  28  79 NW18G28   30.04R WCI  23
ROCHESTER      CLOUDY    37  30  75 NW15G22   30.07R WCI  28
PENN YAN       FLURRIES  35  29  78 W10G18    30.04  WCI  27
$$

             KEY
       WCI = WIND CHILL INDEX
       VSB = VISIBILITY
       HX  = HEAT INDEX
$$



USA.gov is the U.S. government's official web portal to all federal, state and local government web resources and services.